Regional Weather Roundup
Issued by NWS Green Bay, WI

Home | Current Version | Previous Version | Graphics & Text | Print | Product List | Glossary Off
Versions: 1 2 3 4 5 6 7 8 9 10 11 12 13 14 15 16 17 18 19 20 21 22 23 24 25 26 27 28 29 30 31 32 33 34 35 36 37 38 39 40 41 42 43 44 45 46 47 48 49 50

000
ASUS43 KGRB 201501
RWRGRB

NORTH-CENTRAL AND NORTHEAST WISCONSIN REGIONAL WEATHER ROUNDUP
NATIONAL WEATHER SERVICE GREEN BAY WI
1000 AM CDT SUN AUG 20 2017

WIZ005-009-010>012-018-019-201600-
NORTH CENTRAL WISCONSIN

CITY           SKY/WX    TMP DP  RH WIND       PRES   REMARKS
IRONWOOD       SUNNY     72  63  73 S12       29.90F
MANITOWISH WTR NOT AVBL
ARBOR VITAE    NOT AVBL
EAGLE RIVER    NOT AVBL
LAND O LAKES   NOT AVBL
RHINELANDER    CLOUDY    70  63  78 SW12      29.99S
PHILLIPS       NOT AVBL
ANTIGO         NOT AVBL
TOMAHAWK       NOT AVBL
MERRILL        NOT AVBL
$$

WIZ013-073-201600-
NORTHEAST WISCONSIN

CITY           SKY/WX    TMP DP  RH WIND       PRES   REMARKS
IRON MOUNTAIN  SUNNY     74  59  59 SW10      29.97S
MARINETTE      CLOUDY    73  63  70 W8        30.00S
$$

WIZ017-030-035>037-045-201600-
CENTRAL WISCONSIN

CITY           SKY/WX    TMP DP  RH WIND       PRES   REMARKS
MEDFORD        NOT AVBL
WAUSAU         CLOUDY    69  62  78 S8        29.99R
MOSINEE        MOSUNNY   68  64  88 S8        30.02R
MARSHFIELD     CLOUDY    69  62  78 S9        30.00R
WISC RAPIDS    CLOUDY    72  63  73 SW8       30.02R
STEVENS POINT  NOT AVBL
WAUPACA        NOT AVBL
SHAWANO        NOT AVBL
CLINTONVILLE   NOT AVBL
WAUTOMA        CLOUDY    71  64  78 S5        30.03R
$$

WIZ038-039-048-051-201600-
FOX VALLEY

CITY           SKY/WX    TMP DP  RH WIND       PRES   REMARKS
NWS GREEN BAY  CLOUDY    73  69  87 S6        30.01R
APPLETON       PTSUNNY   73  61  64 S9        30.01R
OSHKOSH        CLOUDY    73  63  70 S12       30.03R
FOND DU LAC    CLOUDY    74  61  63 S6        30.03R
$$

WIZ022-050-052-201600-
EAST CENTRAL WISCONSIN

CITY           SKY/WX    TMP DP  RH WIND       PRES   REMARKS
EPHRAIM        NOT AVBL
WASHINGTON ISL NOT AVBL
STURGEON BAY   CLOUDY    74  64  71 SW7       30.02R
MANITOWOC      NOT AVBL
SHEBOYGAN      CLOUDY    77  67  71 S10       30.04R
$$

LMZ563-521-522-541>543-201600-
LAKESHORE

STATION/POSITION TIME  TEMP    WIND        PRES    VSBY  WAVE
                       AIR SEA DIR/SP/G                  HT/PER
                 (UTC) (F)     (DEG/KT/KT) (MB)    (MI)  (FT/S)
SHEBOYGAN LKSHOR 1400   68     160/  7/  8 1016.0F
KEWAUNEE LKSHORE 1430   66     180/  4/  6 1015.3S
NORTHPORT PIER   1440   70     140/  6/ 10 1015.6R
N MID LAKE BUOY  1350   68 67  190/  6/  8 1016.1R         1/ 4
S GREEN BAY BUOY 1430   70 71  210/ 10/ 12 1015.8R
SISTER BAY LKSHO 1418   78     190/  5/  7   N/A
MENOMINEE LKSHOR 1430   72     210/  9/ 12 1015.4R
$$



USA.gov is the U.S. government's official web portal to all federal, state and local government web resources and services.